Simultaneous Nadir Overpasses (SNOs) Predictions

Prediction of SNOs between TERRA and METOP-C Satellite Orbit:

Table of predicted SNOs for the next 14.0 days since TLE Epoch: 3/12/2022
Index Date (TERRA) Time (TERRA) Lat,Lon (TERRA) SZA (TERRA ) Date (METOP-C) Time (METOP-C) Lat,Lon (METOP-C) SZA (METOP-C ) Distance(km) Time Diff (sec)
1 03/14/2022 19:43:34 -81.20, 106.51 94.47 03/14/2022 19:43:01 -81.20, 106.50 94.49 0.51 33
2 03/14/2022 20:33:00 81.21, -85.77 85.53 03/14/2022 20:33:40 81.21, -85.80 85.55 0.61 40
3 03/17/2022 15:17:44 -81.21, 173.03 95.55 03/17/2022 15:17:24 -81.20, 172.89 95.58 2.56 20
4 03/17/2022 16:07:10 81.21, -19.28 84.45 03/17/2022 16:08:03 81.21, -19.39 84.46 1.82 53
5 03/20/2022 10:51:54 -81.21,-120.57 96.64 03/20/2022 10:51:46 -81.21,-120.38 96.62 3.19 8
6 03/20/2022 11:41:20 81.21, 47.09 83.35 03/20/2022 11:42:26 81.21, 46.99 83.37 1.85 66
7 03/23/2022 05:36:38 81.18, 137.75 82.22 03/23/2022 05:35:30 81.18, 137.68 82.19 1.28 68
8 03/23/2022 06:26:03 -81.20, -54.27 97.75 03/23/2022 06:26:09 -81.20, -54.45 97.77 3.16 6
9 03/26/2022 01:10:46 81.18,-155.71 81.15 03/26/2022 01:09:51 81.19,-155.63 81.14 1.50 55



Historial Predications of SNOs between TERRA and METOP-C
